Погода в Тейково

Россия / Ивановская область     56°51′15″N   40°32′07″E
темп.,
°C
ветер,
м/с
пор.,
м/с
влажн.,
%
обл.,
%
осадки,
мм/ч
давл.,
гПа
погр.,
м
21 мая, сб
сб2100:00+1с22830 0.0 101712
03:00−1с22915 0.0 101623
06:00+3ссв12745 0.0 1015161
09:00+8с24515 0.0 10141283
12:00+11с444088 0.0 10122027
15:00+11с443899 0.0 10112108
18:00+10ссв444673 0.0 10091427
21:00+4св36715 0.0 1009111
22 мая, вс
вс2200:00+1св39835 0.0 1009191
03:00−1св25845 0.0 100993
06:00+2ссв36630 0.0 1007218
09:00+7ссв45435 0.0 10061490
12:00+9с453767 0.0 10051877
15:00+9ссв5642100 0.0 10041988
18:00+7ссв4654100 0.0 10041314
21:00+2с247698 0.1 100588
23 мая, пн
пн2300:000ссз258974 0.0 1004107
03:000сз288680 0.0 1004207
06:00+3сз497185 0.0 1003836
09:00+5сз4964100 0.1 10021279
12:00+10сз6943100 0.0 10002090
15:00+9сз51045100 0.0 10011946
18:00+6ссз41255100 0.0 10021406
21:00+5ссз41062100 0.0 10011168
24 мая, вт
вт2400:00+4сз41186100 0.3 10011167
03:00+2зсз4898100 1.5 1001703
06:00+2сз4798100 0.8 1002619
09:00+2ссз2490100 1.3 1004733
12:00+5ссз3475100 0.5 10061115
15:00+6с3464100 0.9 10071172
18:00+6с3478100 0.5 1009760
21:00+2с239361 0.6 101073
25 мая, ср
ср2500:000ссз229625 0.0 101124
03:00+2сз1392100 0.0 1012108
06:00+3сз2493100 0.0 1012187
09:00+5сз2472100 0.0 1013485
12:00+9сз2451100 0.0 10131675
15:00+9сз357189 0.4 10131047
18:00+9ссв36866 1.3 1014654
21:00+4юв119689 1.4 101410